Time,TemperatureF,DewpointF,PressureIn,WindDirection,WindDirectionDegrees,WindSpeedMPH,WindSpeedGustMPH,Humidity,HourlyPrecipIn,Conditions,Clouds,dailyrainin,SoftwareType,DateUTC
2013-02-09 00:03:00,7.9,-9.0,30.08,NNE,23,0.0,0.0,45,0.00,,CLR,0.00,VWS V14.01,2013-02-09 06:03:00,
2013-02-09 00:08:00,8.1,-8.9,30.08,NNE,24,0.0,0.0,45,0.00,,CLR,0.00,VWS V14.01,2013-02-09 06:08:00,
2013-02-09 00:14:00,8.1,-8.9,30.08,NNE,24,0.0,0.0,45,0.00,,CLR,0.00,VWS V14.01,2013-02-09 06:14:00,
2013-02-09 00:19:00,8.1,-8.9,30.08,NNE,24,0.0,0.0,45,0.00,,CLR,0.00,VWS V14.01,2013-02-09 06:19:00,
2013-02-09 00:24:00,8.1,-8.9,30.08,NNE,24,0.0,0.0,45,0.00,,CLR,0.00,VWS V14.01,2013-02-09 06:24:00,
2013-02-09 00:29:00,8.1,-8.9,30.08,NNE,24,0.0,0.0,45,0.00,,CLR,0.00,VWS V14.01,2013-02-09 06:29:00,
2013-02-09 00:35:00,7.9,-9.0,30.08,NNE,24,0.0,0.0,45,0.00,,CLR,0.00,VWS V14.01,2013-02-09 06:35:00,
2013-02-09 00:41:00,7.9,-9.0,30.08,NNE,24,0.0,0.0,45,0.00,,CLR,0.00,VWS V14.01,2013-02-09 06:41:00,
2013-02-09 00:46:00,7.9,-9.0,30.08,NNE,24,0.0,0.0,45,0.00,,CLR,0.00,VWS V14.01,2013-02-09 06:46:00,
2013-02-09 00:52:00,7.9,-9.0,30.08,NNE,24,0.0,0.0,45,0.00,,CLR,0.00,VWS V14.01,2013-02-09 06:52:00,
2013-02-09 00:57:00,7.7,-9.2,30.08,NNE,24,0.0,0.0,45,0.00,,CLR,0.00,VWS V14.01,2013-02-09 06:57:00,
2013-02-09 01:03:00,7.7,-9.2,30.08,NNE,29,0.0,0.0,45,0.00,,CLR,0.00,VWS V14.01,2013-02-09 07:03:00,
2013-02-09 01:09:00,7.7,-9.2,30.08,NNE,29,0.0,0.0,45,0.00,,CLR,0.00,VWS V14.01,2013-02-09 07:09:00,
2013-02-09 01:14:00,7.5,-9.4,30.08,NNE,29,0.0,0.0,45,0.00,,CLR,0.00,VWS V14.01,2013-02-09 07:14:00,
2013-02-09 01:20:00,7.5,-9.4,30.08,NNE,29,0.0,0.0,45,0.00,,CLR,0.00,VWS V14.01,2013-02-09 07:20:00,
2013-02-09 01:25:00,7.5,-9.4,30.08,NNE,30,0.0,0.0,45,0.00,,CLR,0.00,VWS V14.01,2013-02-09 07:25:00,
2013-02-09 01:31:00,7.5,-9.4,30.08,NNE,30,0.0,0.0,45,0.00,,CLR,0.00,VWS V14.01,2013-02-09 07:31:00,
2013-02-09 01:37:00,7.2,-9.7,30.08,NNE,30,0.0,0.0,45,0.00,,CLR,0.00,VWS V14.01,2013-02-09 07:37:00,
2013-02-09 01:42:00,7.2,-9.7,30.11,NNE,30,0.0,0.0,45,0.00,,CLR,0.00,VWS V14.01,2013-02-09 07:42:00,
2013-02-09 01:48:00,7.2,-9.7,30.11,NNE,30,0.0,0.0,45,0.00,,CLR,0.00,VWS V14.01,2013-02-09 07:48:00,
2013-02-09 01:54:00,7.0,-9.9,30.11,NNE,30,0.0,0.0,45,0.00,,CLR,0.00,VWS V14.01,2013-02-09 07:54:00,
2013-02-09 01:59:00,7.0,-9.9,30.11,NNE,30,0.0,0.0,45,0.00,,CLR,0.00,VWS V14.01,2013-02-09 07:59:00,
2013-02-09 02:04:00,6.8,-10.0,30.11,NNE,33,0.0,0.0,45,0.00,,CLR,0.00,VWS V14.01,2013-02-09 08:04:00,
2013-02-09 02:09:00,6.6,-10.2,30.08,NNE,33,0.0,0.0,45,0.00,,CLR,0.00,VWS V14.01,2013-02-09 08:09:00,
2013-02-09 02:14:00,6.4,-10.4,30.08,NE,43,0.0,0.0,45,0.00,,CLR,0.00,VWS V14.01,2013-02-09 08:14:00,
2013-02-09 02:20:00,6.4,-10.4,30.08,ESE,102,0.0,0.0,45,0.00,,CLR,0.00,VWS V14.01,2013-02-09 08:20:00,
2013-02-09 02:26:00,6.8,-10.0,30.08,SSE,167,0.0,3.6,45,0.00,,CLR,0.00,VWS V14.01,2013-02-09 08:26:00,
2013-02-09 02:31:00,7.0,-9.9,30.08,SSE,166,0.0,0.0,45,0.00,,CLR,0.00,VWS V14.01,2013-02-09 08:31:00,
2013-02-09 02:37:00,7.2,-9.7,30.08,SSE,164,0.0,0.0,45,0.00,,CLR,0.00,VWS V14.01,2013-02-09 08:37:00,
2013-02-09 02:43:00,7.2,-9.7,30.08,SSE,161,0.0,0.0,45,0.00,,CLR,0.00,VWS V14.01,2013-02-09 08:43:00,
2013-02-09 02:48:00,7.2,-9.7,30.08,SSE,157,0.0,0.0,45,0.00,,CLR,0.00,VWS V14.01,2013-02-09 08:48:00,
2013-02-09 02:53:00,7.2,-9.7,30.08,South,174,0.0,0.0,45,0.00,,CLR,0.00,VWS V14.01,2013-02-09 08:53:00,
2013-02-09 02:59:00,6.8,-10.0,30.08,SSE,164,0.0,0.0,45,0.00,,CLR,0.00,VWS V14.01,2013-02-09 08:59:00,
2013-02-09 03:05:00,6.8,-10.0,30.08,South,181,0.0,0.0,45,0.00,,CLR,0.00,VWS V14.01,2013-02-09 09:05:00,
2013-02-09 03:11:00,6.6,-10.2,30.08,South,187,0.0,0.0,45,0.00,,CLR,0.00,VWS V14.01,2013-02-09 09:11:00,
2013-02-09 03:16:00,6.6,-10.2,30.08,South,181,0.0,0.0,45,0.00,,CLR,0.00,VWS V14.01,2013-02-09 09:16:00,
2013-02-09 03:22:00,6.8,-10.0,30.08,SSE,152,0.0,0.0,45,0.00,,CLR,0.00,VWS V14.01,2013-02-09 09:22:00,
2013-02-09 03:27:00,6.8,-10.0,30.08,South,174,0.0,0.0,45,0.00,,CLR,0.00,VWS V14.01,2013-02-09 09:27:00,
2013-02-09 03:33:00,7.0,-9.9,30.08,South,178,0.0,0.0,45,0.00,,CLR,0.00,VWS V14.01,2013-02-09 09:33:00,
2013-02-09 03:39:00,7.2,-9.7,30.08,South,173,0.0,0.0,45,0.00,,CLR,0.00,VWS V14.01,2013-02-09 09:39:00,
2013-02-09 03:44:00,7.5,-9.4,30.08,South,172,0.0,0.0,45,0.00,,CLR,0.00,VWS V14.01,2013-02-09 09:44:00,
2013-02-09 03:49:00,7.9,-9.0,30.08,South,172,0.0,0.0,45,0.00,,CLR,0.00,VWS V14.01,2013-02-09 09:49:00,
2013-02-09 03:55:00,8.2,-8.7,30.08,South,186,0.0,0.0,45,0.00,,CLR,0.00,VWS V14.01,2013-02-09 09:55:00,
2013-02-09 04:01:00,9.0,-8.1,30.08,SSW,197,0.0,0.0,45,0.00,,,0.00,VWS V14.01,2013-02-09 10:01:00,
2013-02-09 04:06:00,9.7,-7.4,30.08,SSW,193,0.0,0.0,45,0.00,,,0.00,VWS V14.01,2013-02-09 10:06:00,
2013-02-09 04:12:00,10.4,-6.7,30.08,SSW,198,0.0,3.1,45,0.00,,,0.00,VWS V14.01,2013-02-09 10:12:00,
2013-02-09 04:17:00,10.6,-6.6,30.08,SSW,199,0.0,0.0,45,0.00,,,0.00,VWS V14.01,2013-02-09 10:17:00,
2013-02-09 04:22:00,10.8,-6.4,30.08,South,174,0.0,0.0,45,0.00,,,0.00,VWS V14.01,2013-02-09 10:22:00,
2013-02-09 04:27:00,10.9,-6.2,30.08,SSW,198,0.0,0.0,45,0.00,,,0.00,VWS V14.01,2013-02-09 10:27:00,
2013-02-09 04:33:00,10.9,-6.2,30.08,SSW,213,0.0,0.0,45,0.00,,,0.00,VWS V14.01,2013-02-09 10:33:00,
2013-02-09 04:38:00,10.9,-6.2,30.08,SW,225,0.0,0.0,45,0.00,,,0.00,VWS V14.01,2013-02-09 10:38:00,
2013-02-09 04:43:00,10.9,-6.2,30.08,South,188,0.0,0.0,45,0.00,,,0.00,VWS V14.01,2013-02-09 10:43:00,
2013-02-09 04:49:00,10.9,-6.2,30.08,South,191,0.0,0.0,45,0.00,,,0.00,VWS V14.01,2013-02-09 10:49:00,
2013-02-09 04:54:00,10.9,-6.2,30.08,SSW,196,0.0,0.0,45,0.00,,,0.00,VWS V14.01,2013-02-09 10:54:00,
2013-02-09 05:00:00,11.3,-5.9,30.08,South,189,0.0,0.0,45,0.00,,,0.00,VWS V14.01,2013-02-09 11:00:00,
2013-02-09 05:05:00,11.7,-5.6,30.08,South,191,0.0,0.0,45,0.00,,,0.00,VWS V14.01,2013-02-09 11:05:00,
2013-02-09 05:11:00,12.2,-5.1,30.05,South,171,0.0,0.0,45,0.00,,,0.00,VWS V14.01,2013-02-09 11:11:00,
2013-02-09 05:17:00,12.7,-4.6,30.05,South,183,0.0,0.0,45,0.00,,,0.00,VWS V14.01,2013-02-09 11:17:00,
2013-02-09 05:22:00,13.3,-4.1,30.05,South,189,0.0,0.0,45,0.00,,,0.00,VWS V14.01,2013-02-09 11:22:00,
2013-02-09 05:28:00,13.6,-3.8,30.05,South,182,0.0,0.0,45,0.00,,,0.00,VWS V14.01,2013-02-09 11:28:00,
2013-02-09 05:33:00,14.2,8.0,30.05,South,185,0.0,0.0,76,0.00,,,0.00,VWS V14.01,2013-02-09 11:33:00,
2013-02-09 05:38:00,14.4,8.5,30.05,South,185,0.0,0.0,77,0.00,,,0.00,VWS V14.01,2013-02-09 11:38:00,
2013-02-09 05:43:00,14.5,8.7,30.05,South,186,0.0,0.0,77,0.00,,,0.00,VWS V14.01,2013-02-09 11:43:00,
2013-02-09 05:48:00,14.9,9.0,30.05,South,175,0.0,0.0,77,0.00,,,0.00,VWS V14.01,2013-02-09 11:48:00,
2013-02-09 05:54:00,15.1,9.2,30.05,SSE,164,0.0,0.0,77,0.00,,,0.00,VWS V14.01,2013-02-09 11:54:00,
2013-02-09 06:00:00,15.3,9.4,30.05,SSE,157,0.0,0.0,77,0.00,,,0.00,VWS V14.01,2013-02-09 12:00:00,
2013-02-09 06:05:00,15.4,9.5,30.05,SSE,159,0.0,3.1,77,0.00,,,0.00,VWS V14.01,2013-02-09 12:05:00,
2013-02-09 06:11:00,15.8,9.9,30.05,SSE,158,0.0,0.0,77,0.00,,,0.00,VWS V14.01,2013-02-09 12:11:00,
2013-02-09 06:16:00,16.0,10.1,30.05,South,171,3.1,3.1,77,0.00,,,0.00,VWS V14.01,2013-02-09 12:16:00,
2013-02-09 06:21:00,16.0,10.1,30.05,South,169,0.0,0.0,77,0.00,,,0.00,VWS V14.01,2013-02-09 12:21:00,
2013-02-09 06:26:00,16.2,10.2,30.05,South,176,0.0,0.0,77,0.00,,,0.00,VWS V14.01,2013-02-09 12:26:00,
2013-02-09 06:32:00,16.3,10.4,30.05,SSE,157,0.0,0.0,77,0.00,,,0.00,VWS V14.01,2013-02-09 12:32:00,
2013-02-09 06:37:00,16.5,10.6,30.05,SSE,157,0.0,0.0,77,0.00,,,0.00,VWS V14.01,2013-02-09 12:37:00,
2013-02-09 06:43:00,16.5,10.6,30.05,SSE,167,0.0,0.0,77,0.00,,,0.00,VWS V14.01,2013-02-09 12:43:00,
2013-02-09 06:48:00,16.7,10.8,30.05,SSE,159,0.0,0.0,77,0.00,,,0.00,VWS V14.01,2013-02-09 12:48:00,
2013-02-09 06:53:00,16.7,10.8,30.05,SSE,157,3.1,3.1,77,0.00,,,0.00,VWS V14.01,2013-02-09 12:53:00,
2013-02-09 06:58:00,16.5,10.3,30.05,SSE,157,2.7,2.7,76,0.00,,,0.00,VWS V14.01,2013-02-09 12:58:00,
2013-02-09 07:03:00,16.3,10.1,30.05,SSE,153,0.0,0.0,76,0.00,,,0.00,VWS V14.01,2013-02-09 13:03:00,
2013-02-09 07:09:00,16.2,9.9,30.05,SSE,154,0.0,0.0,76,0.00,,,0.00,VWS V14.01,2013-02-09 13:09:00,
2013-02-09 07:14:00,16.2,9.9,30.05,SSE,154,0.0,0.0,76,0.00,,,0.00,VWS V14.01,2013-02-09 13:14:00,
2013-02-09 07:19:00,16.3,10.1,30.05,South,171,0.0,2.2,76,0.00,,,0.00,VWS V14.01,2013-02-09 13:19:00,
2013-02-09 07:24:00,16.5,10.6,30.05,SSE,156,0.0,0.0,77,0.00,,,0.00,VWS V14.01,2013-02-09 13:24:00,
2013-02-09 07:29:00,16.7,10.8,30.05,SSE,157,0.0,0.0,77,0.00,,,0.00,VWS V14.01,2013-02-09 13:29:00,
2013-02-09 07:35:00,16.9,10.9,30.05,SSE,167,0.0,0.0,77,0.00,,,0.00,VWS V14.01,2013-02-09 13:35:00,
2013-02-09 07:45:00,17.4,11.5,30.05,South,174,0.0,2.2,77,0.00,,,0.00,VWS V14.01,2013-02-09 13:45:00,
2013-02-09 07:50:00,17.8,11.8,30.05,South,191,0.0,0.0,77,0.00,,,0.00,VWS V14.01,2013-02-09 13:50:00,
2013-02-09 07:56:00,18.3,12.6,30.05,South,171,0.0,3.1,78,0.00,,,0.00,VWS V14.01,2013-02-09 13:56:00,
2013-02-09 08:13:00,19.4,14.0,30.02,SSW,206,3.1,3.1,79,0.00,,,0.00,VWS V14.01,2013-02-09 14:13:00,
2013-02-09 08:19:00,19.4,14.2,30.02,South,178,5.4,5.4,80,0.00,,,0.00,VWS V14.01,2013-02-09 14:19:00,
2013-02-09 08:24:00,19.6,14.1,30.02,South,189,3.1,3.6,79,0.00,,,0.00,VWS V14.01,2013-02-09 14:24:00,
2013-02-09 08:30:00,19.6,14.4,30.02,South,179,3.1,5.4,80,0.00,,,0.00,VWS V14.01,2013-02-09 14:30:00,
2013-02-09 08:36:00,19.8,14.6,30.02,SSE,164,5.4,5.4,80,0.00,,,0.00,VWS V14.01,2013-02-09 14:36:00,
2013-02-09 08:41:00,19.9,14.8,30.02,SSE,155,5.8,5.8,80,0.00,,,0.00,VWS V14.01,2013-02-09 14:41:00,
2013-02-09 08:46:00,19.9,14.8,30.02,SSE,160,4.0,5.8,80,0.00,,,0.00,VWS V14.01,2013-02-09 14:46:00,
2013-02-09 08:51:00,19.9,14.8,30.02,South,176,5.4,5.4,80,0.00,,,0.00,VWS V14.01,2013-02-09 14:51:00,
2013-02-09 08:56:00,20.1,14.9,30.02,SSE,161,2.7,3.6,80,0.00,,,0.00,VWS V14.01,2013-02-09 14:56:00,
2013-02-09 09:02:00,20.3,15.1,30.02,SE,141,4.0,4.0,80,0.00,,,0.00,VWS V14.01,2013-02-09 15:02:00,
2013-02-09 09:07:00,20.5,15.3,30.02,SSE,150,2.7,3.6,80,0.00,,,0.00,VWS V14.01,2013-02-09 15:07:00,
2013-02-09 09:12:00,20.5,15.3,30.02,SE,143,5.4,5.4,80,0.00,,,0.00,VWS V14.01,2013-02-09 15:12:00,
2013-02-09 09:17:00,20.5,15.3,30.02,South,169,0.0,4.0,80,0.00,,,0.00,VWS V14.01,2013-02-09 15:17:00,
2013-02-09 09:23:00,20.7,15.5,30.02,SSE,166,3.1,3.6,80,0.00,,,0.00,VWS V14.01,2013-02-09 15:23:00,
2013-02-09 09:28:00,20.7,15.5,30.02,South,170,2.7,4.0,80,0.00,,,0.00,VWS V14.01,2013-02-09 15:28:00,
2013-02-09 09:33:00,21.0,15.8,30.02,SE,141,3.1,5.4,80,0.00,,,0.00,VWS V14.01,2013-02-09 15:33:00,
2013-02-09 09:38:00,21.0,15.8,29.99,South,177,6.3,6.3,80,0.00,,,0.00,VWS V14.01,2013-02-09 15:38:00,
2013-02-09 09:43:00,21.2,16.3,29.99,SW,225,3.1,5.4,81,0.00,,,0.00,VWS V14.01,2013-02-09 15:43:00,
2013-02-09 09:49:00,21.2,16.3,29.99,SSE,165,4.0,4.9,81,0.00,,,0.00,VWS V14.01,2013-02-09 15:49:00,
2013-02-09 09:54:00,21.2,16.3,29.99,SSW,205,3.6,6.3,81,0.00,,,0.00,VWS V14.01,2013-02-09 15:54:00,
2013-02-09 10:00:00,21.4,16.5,29.99,SSE,166,5.4,5.8,81,0.00,,,0.00,VWS V14.01,2013-02-09 16:00:00,
2013-02-09 10:06:00,21.6,16.6,29.99,SSE,167,4.0,5.4,81,0.00,,,0.00,VWS V14.01,2013-02-09 16:06:00,
2013-02-09 10:11:00,21.7,16.8,29.99,SSE,162,5.4,5.8,81,0.00,,,0.00,VWS V14.01,2013-02-09 16:11:00,
2013-02-09 10:17:00,21.9,17.0,29.99,South,182,4.9,4.9,81,0.00,,,0.00,VWS V14.01,2013-02-09 16:17:00,
2013-02-09 10:22:00,21.9,16.7,29.99,SSE,150,2.7,6.3,80,0.00,,,0.00,VWS V14.01,2013-02-09 16:22:00,
2013-02-09 10:27:00,21.9,16.7,29.99,SSE,166,11.0,11.0,80,0.00,,,0.00,VWS V14.01,2013-02-09 16:27:00,
2013-02-09 10:32:00,21.9,16.7,29.99,SSW,194,4.9,6.3,80,0.00,,,0.00,VWS V14.01,2013-02-09 16:32:00,
2013-02-09 10:38:00,21.9,16.7,29.99,South,185,3.6,6.3,80,0.00,,,0.00,VWS V14.01,2013-02-09 16:38:00,
2013-02-09 10:44:00,21.9,16.4,29.99,South,188,3.6,5.8,79,0.00,,,0.00,VWS V14.01,2013-02-09 16:44:00,
2013-02-09 10:49:00,22.1,16.6,29.99,South,187,3.1,3.1,79,0.00,,,0.00,VWS V14.01,2013-02-09 16:49:00,
2013-02-09 10:55:00,22.5,16.9,29.99,SSE,155,6.3,8.1,79,0.00,,,0.00,VWS V14.01,2013-02-09 16:55:00,
2013-02-09 11:00:00,22.5,16.4,29.99,South,176,5.8,6.3,77,0.00,,,0.00,VWS V14.01,2013-02-09 17:00:00,
2013-02-09 11:06:00,22.5,15.4,29.99,SE,138,6.3,11.0,74,0.00,,OVC010,0.00,VWS V14.01,2013-02-09 17:06:00,
2013-02-09 11:12:00,22.6,14.3,29.99,SW,220,6.3,8.3,70,0.00,,OVC010,0.00,VWS V14.01,2013-02-09 17:12:00,
2013-02-09 11:17:00,22.8,13.5,29.99,SSE,163,5.8,7.6,67,0.00,,OVC010,0.00,VWS V14.01,2013-02-09 17:17:00,
2013-02-09 11:23:00,23.0,12.3,29.99,SSE,161,6.3,6.3,63,0.00,,OVC010,0.00,VWS V14.01,2013-02-09 17:23:00,
2013-02-09 11:28:00,23.2,11.4,29.99,South,189,5.4,7.6,60,0.00,,OVC010,0.00,VWS V14.01,2013-02-09 17:28:00,
2013-02-09 11:34:00,23.4,11.2,29.99,SSW,212,7.6,7.6,59,0.00,,OVC010,0.00,VWS V14.01,2013-02-09 17:34:00,
2013-02-09 11:39:00,23.4,11.2,29.96,SSE,167,5.8,8.1,59,0.00,,OVC010,0.00,VWS V14.01,2013-02-09 17:39:00,
2013-02-09 11:44:00,23.5,10.9,29.96,SSW,202,6.3,8.3,58,0.00,,OVC010,0.00,VWS V14.01,2013-02-09 17:44:00,
2013-02-09 11:49:00,23.7,11.1,29.96,SW,217,5.8,6.3,58,0.00,,OVC010,0.00,VWS V14.01,2013-02-09 17:49:00,
2013-02-09 11:54:00,23.7,10.7,29.96,South,191,5.4,7.6,57,0.00,,OVC010,0.00,VWS V14.01,2013-02-09 17:54:00,
2013-02-09 12:00:00,23.9,10.9,29.96,SSW,208,8.1,10.1,57,0.00,,OVC010,0.00,VWS V14.01,2013-02-09 18:00:00,
2013-02-09 12:06:00,24.1,10.7,29.96,South,188,8.1,8.7,56,0.00,,OVC012,0.00,VWS V14.01,2013-02-09 18:06:00,
2013-02-09 12:11:00,24.3,10.4,29.96,SSE,168,5.4,8.1,55,0.00,,OVC012,0.00,VWS V14.01,2013-02-09 18:11:00,
2013-02-09 12:17:00,24.4,10.6,29.96,South,191,7.2,10.1,55,0.00,,OVC012,0.00,VWS V14.01,2013-02-09 18:17:00,
2013-02-09 12:22:00,24.4,10.2,29.96,SSW,204,8.1,8.3,54,0.00,,OVC012,0.00,VWS V14.01,2013-02-09 18:22:00,
2013-02-09 12:28:00,24.6,10.4,29.96,SSW,199,3.1,7.6,54,0.00,,OVC012,0.00,VWS V14.01,2013-02-09 18:28:00,
2013-02-09 12:33:00,24.8,10.9,29.96,SE,139,5.4,5.8,55,0.00,,OVC012,0.00,VWS V14.01,2013-02-09 18:33:00,
2013-02-09 12:39:00,25.0,11.1,29.96,South,181,6.3,8.3,55,0.00,,OVC012,0.00,VWS V14.01,2013-02-09 18:39:00,
2013-02-09 12:45:00,25.2,10.9,29.96,South,170,2.7,5.4,54,0.00,,OVC012,0.00,VWS V14.01,2013-02-09 18:45:00,
2013-02-09 12:50:00,25.3,11.0,29.96,SSW,198,5.4,5.8,54,0.00,,OVC012,0.00,VWS V14.01,2013-02-09 18:50:00,
2013-02-09 12:55:00,25.3,10.6,29.93,SE,141,7.2,8.3,53,0.00,,OVC012,0.00,VWS V14.01,2013-02-09 18:55:00,
2013-02-09 13:01:00,25.5,11.2,29.93,South,179,3.6,6.3,54,0.00,,OVC012,0.00,VWS V14.01,2013-02-09 19:01:00,
2013-02-09 13:06:00,25.5,10.8,29.93,South,186,6.3,6.3,53,0.00,,OVC012,0.00,VWS V14.01,2013-02-09 19:06:00,
2013-02-09 13:11:00,25.5,10.4,29.93,South,188,5.8,7.6,52,0.00,,OVC012,0.00,VWS V14.01,2013-02-09 19:11:00,
2013-02-09 13:17:00,25.7,10.9,29.93,SSW,198,4.9,5.4,53,0.00,,OVC012,0.00,VWS V14.01,2013-02-09 19:17:00,
2013-02-09 13:22:00,25.7,10.5,29.93,South,190,5.4,6.3,52,0.00,,OVC012,0.00,VWS V14.01,2013-02-09 19:22:00,
2013-02-09 13:27:00,25.9,11.1,29.93,SSW,195,3.1,5.8,53,0.00,,OVC012,0.00,VWS V14.01,2013-02-09 19:27:00,
2013-02-09 13:32:00,26.1,11.3,29.93,SSW,196,5.4,5.4,53,0.00,,OVC012,0.00,VWS V14.01,2013-02-09 19:32:00,
2013-02-09 13:37:00,26.1,11.3,29.93,SSW,201,5.4,5.4,53,0.00,,OVC012,0.00,VWS V14.01,2013-02-09 19:37:00,
2013-02-09 13:42:00,26.2,11.0,29.93,South,187,6.3,6.3,52,0.00,,OVC012,0.00,VWS V14.01,2013-02-09 19:42:00,
2013-02-09 13:48:00,26.1,10.9,29.93,SSW,197,6.3,6.3,52,0.00,,OVC012,0.00,VWS V14.01,2013-02-09 19:48:00,
2013-02-09 13:53:00,26.1,10.9,29.93,South,190,5.8,8.1,52,0.00,,OVC012,0.00,VWS V14.01,2013-02-09 19:53:00,
2013-02-09 13:59:00,25.9,10.7,29.93,SSW,211,5.8,6.3,52,0.00,,OVC012,0.00,VWS V14.01,2013-02-09 19:59:00,
2013-02-09 14:04:00,25.9,11.5,29.93,South,187,4.0,5.4,54,0.00,,OVC014,0.00,VWS V14.01,2013-02-09 20:04:00,
2013-02-09 14:09:00,26.1,11.7,29.93,SSW,192,6.3,10.1,54,0.00,,OVC014,0.00,VWS V14.01,2013-02-09 20:09:00,
2013-02-09 14:14:00,26.2,11.0,29.93,South,173,7.6,8.3,52,0.00,,OVC014,0.00,VWS V14.01,2013-02-09 20:14:00,
2013-02-09 14:20:00,26.1,11.3,29.93,SSW,198,6.3,6.3,53,0.00,,OVC014,0.00,VWS V14.01,2013-02-09 20:20:00,
2013-02-09 14:25:00,26.1,11.3,29.91,South,189,5.4,7.6,53,0.00,,OVC014,0.00,VWS V14.01,2013-02-09 20:25:00,
2013-02-09 14:31:00,26.1,11.3,29.91,South,186,10.5,10.5,53,0.00,,OVC014,0.00,VWS V14.01,2013-02-09 20:31:00,
2013-02-09 14:36:00,26.1,11.7,29.91,SSE,168,4.9,7.6,54,0.00,,OVC014,0.00,VWS V14.01,2013-02-09 20:36:00,
2013-02-09 14:41:00,26.2,11.4,29.91,SSW,199,3.6,8.1,53,0.00,,OVC014,0.00,VWS V14.01,2013-02-09 20:41:00,
2013-02-09 14:47:00,26.2,11.9,29.91,South,191,5.4,5.4,54,0.00,,OVC014,0.00,VWS V14.01,2013-02-09 20:47:00,
2013-02-09 14:53:00,26.2,11.9,29.91,SSW,193,8.7,10.5,54,0.00,,OVC014,0.00,VWS V14.01,2013-02-09 20:53:00,
2013-02-09 14:59:00,26.2,11.4,29.91,SW,222,3.6,8.1,53,0.00,,OVC014,0.00,VWS V14.01,2013-02-09 20:59:00,
2013-02-09 15:04:00,26.2,11.4,29.91,South,187,5.8,10.1,53,0.00,,OVC014,0.00,VWS V14.01,2013-02-09 21:04:00,
2013-02-09 15:09:00,26.2,11.4,29.91,SSE,164,6.3,7.6,53,0.00,,OVC014,0.00,VWS V14.01,2013-02-09 21:09:00,
2013-02-09 15:14:00,26.2,11.9,29.91,South,184,5.4,8.3,54,0.00,,OVC014,0.00,VWS V14.01,2013-02-09 21:14:00,
2013-02-09 15:20:00,26.4,12.0,29.91,SE,136,8.1,8.1,54,0.00,,OVC014,0.00,VWS V14.01,2013-02-09 21:20:00,
2013-02-09 15:26:00,26.2,11.4,29.91,South,182,8.3,8.3,53,0.00,,OVC014,0.00,VWS V14.01,2013-02-09 21:26:00,
2013-02-09 15:31:00,26.2,11.9,29.91,South,181,7.6,7.6,54,0.00,,OVC014,0.00,VWS V14.01,2013-02-09 21:31:00,
2013-02-09 15:36:00,26.4,12.0,29.91,SSW,195,5.8,7.6,54,0.00,,OVC014,0.00,VWS V14.01,2013-02-09 21:36:00,
2013-02-09 15:41:00,26.2,11.9,29.91,SSW,211,4.0,5.8,54,0.00,,OVC014,0.00,VWS V14.01,2013-02-09 21:41:00,
2013-02-09 15:47:00,26.4,12.0,29.91,SSW,203,6.3,8.7,54,0.00,,OVC014,0.00,VWS V14.01,2013-02-09 21:47:00,
2013-02-09 15:52:00,26.6,12.2,29.91,South,188,7.6,7.6,54,0.00,,OVC014,0.00,VWS V14.01,2013-02-09 21:52:00,
2013-02-09 15:58:00,26.6,12.2,29.91,South,184,5.4,5.4,54,0.00,,OVC014,0.00,VWS V14.01,2013-02-09 21:58:00,
2013-02-09 16:03:00,26.6,12.2,29.91,South,185,5.4,7.6,54,0.00,,OVC016,0.00,VWS V14.01,2013-02-09 22:03:00,
2013-02-09 16:09:00,26.4,11.6,29.88,SSW,208,5.4,8.7,53,0.00,,OVC016,0.00,VWS V14.01,2013-02-09 22:09:00,
2013-02-09 16:15:00,26.4,11.6,29.88,SSE,165,4.0,5.4,53,0.00,,OVC016,0.00,VWS V14.01,2013-02-09 22:15:00,
2013-02-09 16:20:00,26.4,12.0,29.88,South,172,3.6,5.4,54,0.00,,OVC016,0.00,VWS V14.01,2013-02-09 22:20:00,
2013-02-09 16:26:00,26.6,12.6,29.91,South,186,5.8,5.8,55,0.00,,OVC016,0.00,VWS V14.01,2013-02-09 22:26:00,
2013-02-09 16:31:00,26.6,12.6,29.91,South,191,2.2,4.0,55,0.00,,OVC016,0.00,VWS V14.01,2013-02-09 22:31:00,
2013-02-09 16:37:00,26.4,12.5,29.91,SSE,165,4.5,8.1,55,0.00,,OVC016,0.00,VWS V14.01,2013-02-09 22:37:00,
2013-02-09 16:43:00,26.4,12.5,29.88,South,184,8.1,9.2,55,0.00,,OVC016,0.00,VWS V14.01,2013-02-09 22:43:00,
2013-02-09 16:49:00,26.4,12.5,29.88,SSW,212,3.6,3.6,55,0.00,,OVC016,0.00,VWS V14.01,2013-02-09 22:49:00,
2013-02-09 16:54:00,26.2,12.3,29.88,South,174,3.6,6.3,55,0.00,,OVC016,0.00,VWS V14.01,2013-02-09 22:54:00,
2013-02-09 17:00:00,26.1,12.5,29.88,South,175,3.1,5.4,56,0.00,,OVC016,0.00,VWS V14.01,2013-02-09 23:00:00,
2013-02-09 17:05:00,26.1,12.5,29.88,South,182,8.1,8.1,56,0.00,,OVC016,0.00,VWS V14.01,2013-02-09 23:05:00,
2013-02-09 17:10:00,26.1,12.5,29.85,South,180,3.6,7.6,56,0.00,,OVC016,0.00,VWS V14.01,2013-02-09 23:10:00,
2013-02-09 17:16:00,26.1,12.9,29.85,South,190,8.1,10.1,57,0.00,,OVC016,0.00,VWS V14.01,2013-02-09 23:16:00,
2013-02-09 17:21:00,26.1,12.5,29.85,SSW,195,3.1,6.3,56,0.00,,OVC016,0.00,VWS V14.01,2013-02-09 23:21:00,
2013-02-09 17:27:00,26.1,12.9,29.88,SSE,152,5.4,5.4,57,0.00,,OVC016,0.00,VWS V14.01,2013-02-09 23:27:00,
2013-02-09 17:33:00,25.9,13.1,29.88,SSE,155,3.1,6.3,58,0.00,,OVC016,0.00,VWS V14.01,2013-02-09 23:33:00,
2013-02-09 17:38:00,25.9,13.1,29.88,South,171,5.4,10.5,58,0.00,,OVC016,0.00,VWS V14.01,2013-02-09 23:38:00,
2013-02-09 17:44:00,25.9,13.1,29.88,SSE,150,5.8,5.8,58,0.00,,OVC016,0.00,VWS V14.01,2013-02-09 23:44:00,
2013-02-09 17:49:00,25.9,13.1,29.88,South,171,4.5,8.7,58,0.00,,OVC016,0.00,VWS V14.01,2013-02-09 23:49:00,
2013-02-09 17:55:00,25.7,13.0,29.88,South,174,6.3,7.6,58,0.00,,OVC016,0.00,VWS V14.01,2013-02-09 23:55:00,
2013-02-09 18:01:00,25.7,13.0,29.88,SSE,151,4.0,7.2,58,0.00,,OVC016,0.00,VWS V14.01,2013-02-10 00:01:00,
2013-02-09 18:06:00,25.5,12.8,29.88,SSE,151,3.6,8.3,58,0.00,,OVC016,0.00,VWS V14.01,2013-02-10 00:06:00,
2013-02-09 18:12:00,25.5,13.2,29.88,SSE,160,5.8,8.1,59,0.00,,OVC016,0.00,VWS V14.01,2013-02-10 00:12:00,
2013-02-09 18:17:00,25.7,13.8,29.88,SSE,154,5.4,8.1,60,0.00,,OVC016,0.00,VWS V14.01,2013-02-10 00:17:00,
2013-02-09 18:22:00,25.5,13.2,29.88,South,186,4.0,6.3,59,0.00,,OVC016,0.00,VWS V14.01,2013-02-10 00:22:00,
2013-02-09 18:27:00,25.5,13.2,29.88,SSE,167,6.3,8.7,59,0.00,,OVC016,0.00,VWS V14.01,2013-02-10 00:27:00,
2013-02-09 18:32:00,25.5,13.2,29.88,South,191,6.3,7.6,59,0.00,,OVC016,0.00,VWS V14.01,2013-02-10 00:32:00,
2013-02-09 18:37:00,25.5,13.2,29.88,SSE,157,7.6,7.6,59,0.00,,OVC016,0.00,VWS V14.01,2013-02-10 00:37:00,
2013-02-09 18:43:00,25.5,13.6,29.88,South,175,4.0,5.4,60,0.00,,OVC016,0.00,VWS V14.01,2013-02-10 00:43:00,
2013-02-09 18:48:00,25.5,13.6,29.88,SSE,164,3.6,7.6,60,0.00,,OVC016,0.00,VWS V14.01,2013-02-10 00:48:00,
2013-02-09 18:54:00,25.5,13.6,29.85,SSE,167,4.0,7.2,60,0.00,,OVC016,0.00,VWS V14.01,2013-02-10 00:54:00,
2013-02-09 18:59:00,25.5,13.6,29.85,South,179,3.6,6.3,60,0.00,,OVC016,0.00,VWS V14.01,2013-02-10 00:59:00,
2013-02-09 19:05:00,25.5,14.0,29.85,South,177,5.8,5.8,61,0.00,,OVC014,0.00,VWS V14.01,2013-02-10 01:05:00,
2013-02-09 19:11:00,25.5,14.0,29.85,SSE,168,8.1,8.3,61,0.00,,OVC014,0.00,VWS V14.01,2013-02-10 01:11:00,
2013-02-09 19:16:00,25.7,14.1,29.85,South,182,5.8,5.8,61,0.00,,OVC014,0.00,VWS V14.01,2013-02-10 01:16:00,
2013-02-09 19:21:00,25.7,14.1,29.85,SSE,165,4.0,5.8,61,0.00,,OVC014,0.00,VWS V14.01,2013-02-10 01:21:00,
2013-02-09 19:26:00,25.7,14.1,29.85,South,188,4.0,7.6,61,0.00,,OVC014,0.00,VWS V14.01,2013-02-10 01:26:00,
2013-02-09 19:32:00,25.7,14.1,29.85,South,170,7.6,7.6,61,0.00,,OVC014,0.00,VWS V14.01,2013-02-10 01:32:00,
2013-02-09 19:37:00,25.7,14.5,29.85,SSE,154,7.6,8.7,62,0.00,,OVC014,0.00,VWS V14.01,2013-02-10 01:37:00,
2013-02-09 19:42:00,25.7,14.5,29.85,SSE,155,8.1,8.1,62,0.00,,OVC014,0.00,VWS V14.01,2013-02-10 01:42:00,
2013-02-09 19:48:00,25.7,14.1,29.85,SSE,159,4.0,7.2,61,0.00,,OVC014,0.00,VWS V14.01,2013-02-10 01:48:00,
2013-02-09 19:54:00,25.5,14.0,29.85,South,187,5.8,6.3,61,0.00,,OVC014,0.00,VWS V14.01,2013-02-10 01:54:00,
2013-02-09 20:00:00,25.5,14.3,29.85,South,175,8.1,10.1,62,0.00,,OVC014,0.00,VWS V14.01,2013-02-10 02:00:00,
2013-02-09 20:05:00,25.7,14.5,29.85,SSE,161,6.3,6.3,62,0.00,,OVC014,0.00,VWS V14.01,2013-02-10 02:05:00,
2013-02-09 20:11:00,25.5,14.3,29.85,SSE,156,6.3,10.5,62,0.00,,OVC014,0.00,VWS V14.01,2013-02-10 02:11:00,
2013-02-09 20:17:00,25.5,14.3,29.85,South,170,7.2,8.1,62,0.00,,OVC014,0.00,VWS V14.01,2013-02-10 02:17:00,
2013-02-09 20:22:00,25.5,14.3,29.85,SSW,196,3.1,5.8,62,0.00,,OVC014,0.00,VWS V14.01,2013-02-10 02:22:00,
2013-02-09 20:28:00,25.7,14.9,29.85,SSW,198,5.8,8.1,63,0.00,,OVC014,0.00,VWS V14.01,2013-02-10 02:28:00,
2013-02-09 20:33:00,25.5,14.7,29.85,South,175,4.9,6.3,63,0.00,,OVC014,0.00,VWS V14.01,2013-02-10 02:33:00,
2013-02-09 20:39:00,25.7,15.2,29.85,SSE,153,4.0,8.3,64,0.00,,OVC014,0.00,VWS V14.01,2013-02-10 02:39:00,
2013-02-09 20:44:00,25.7,15.2,29.85,South,179,5.4,10.5,64,0.00,,OVC014,0.00,VWS V14.01,2013-02-10 02:44:00,
2013-02-09 20:49:00,25.7,14.9,29.85,SSE,159,6.3,7.6,63,0.00,,OVC014,0.00,VWS V14.01,2013-02-10 02:49:00,
2013-02-09 20:54:00,25.5,15.1,29.85,SSW,198,5.4,5.8,64,0.00,,OVC014,0.00,VWS V14.01,2013-02-10 02:54:00,
2013-02-09 20:59:00,25.5,15.1,29.85,SSE,152,7.6,8.3,64,0.00,,OVC014,0.00,VWS V14.01,2013-02-10 02:59:00,
2013-02-09 21:04:00,25.7,15.2,29.85,SSE,157,5.4,7.2,64,0.00,,OVC014,0.00,VWS V14.01,2013-02-10 03:04:00,
2013-02-09 21:09:00,25.7,15.2,29.85,South,172,5.8,7.6,64,0.00,,OVC014,0.00,VWS V14.01,2013-02-10 03:09:00,
2013-02-09 21:15:00,25.7,15.2,29.85,South,170,5.4,6.3,64,0.00,,OVC014,0.00,VWS V14.01,2013-02-10 03:15:00,
2013-02-09 21:20:00,25.7,15.6,29.85,SSW,192,4.0,7.2,65,0.00,,OVC014,0.00,VWS V14.01,2013-02-10 03:20:00,
2013-02-09 21:25:00,25.7,15.6,29.85,South,189,4.0,10.1,65,0.00,,OVC014,0.00,VWS V14.01,2013-02-10 03:25:00,
2013-02-09 21:30:00,25.9,16.1,29.85,South,191,5.8,6.3,66,0.00,,OVC014,0.00,VWS V14.01,2013-02-10 03:30:00,
2013-02-09 21:36:00,25.9,16.1,29.85,South,169,8.7,8.7,66,0.00,,OVC014,0.00,VWS V14.01,2013-02-10 03:36:00,
2013-02-09 21:42:00,26.1,16.3,29.85,SSW,195,10.5,10.5,66,0.00,,OVC014,0.00,VWS V14.01,2013-02-10 03:42:00,
2013-02-09 21:47:00,26.1,16.3,29.85,South,188,3.1,6.3,66,0.00,,OVC014,0.00,VWS V14.01,2013-02-10 03:47:00,
2013-02-09 21:52:00,26.2,16.4,29.85,SSW,207,4.0,7.6,66,0.00,,OVC014,0.00,VWS V14.01,2013-02-10 03:52:00,
2013-02-09 21:58:00,26.2,16.4,29.85,SSW,204,5.4,7.6,66,0.00,,OVC014,0.00,VWS V14.01,2013-02-10 03:58:00,
2013-02-09 22:03:00,26.4,16.6,29.85,South,186,7.6,7.6,66,0.00,,OVC014,0.00,VWS V14.01,2013-02-10 04:03:00,
2013-02-09 22:09:00,26.6,16.8,29.85,South,187,4.9,5.4,66,0.00,,OVC014,0.00,VWS V14.01,2013-02-10 04:09:00,
2013-02-09 22:14:00,26.6,17.1,29.85,SSE,150,6.3,6.3,67,0.00,,OVC014,0.00,VWS V14.01,2013-02-10 04:14:00,
2013-02-09 22:20:00,26.8,17.3,29.85,South,175,3.1,5.4,67,0.00,,OVC014,0.00,VWS V14.01,2013-02-10 04:20:00,
2013-02-09 22:25:00,27.0,17.5,29.82,SSW,211,2.7,5.4,67,0.00,,OVC014,0.00,VWS V14.01,2013-02-10 04:25:00,
2013-02-09 22:30:00,27.0,17.8,29.82,SSW,197,3.1,8.3,68,0.00,,OVC014,0.00,VWS V14.01,2013-02-10 04:30:00,
2013-02-09 22:35:00,27.0,18.2,29.82,South,181,5.4,7.6,69,0.00,,OVC014,0.00,VWS V14.01,2013-02-10 04:35:00,
2013-02-09 22:41:00,27.0,17.8,29.82,South,190,3.1,5.4,68,0.00,,OVC014,0.00,VWS V14.01,2013-02-10 04:41:00,
2013-02-09 22:47:00,26.8,17.6,29.82,SSW,201,2.7,4.0,68,0.00,,OVC014,0.00,VWS V14.01,2013-02-10 04:47:00,
2013-02-09 22:52:00,26.6,17.5,29.82,SSE,167,2.2,2.7,68,0.00,,OVC014,0.00,VWS V14.01,2013-02-10 04:52:00,
2013-02-09 22:58:00,26.2,16.8,29.82,South,171,0.0,0.0,67,0.00,,OVC014,0.00,VWS V14.01,2013-02-10 04:58:00,
2013-02-09 23:00:00,26.2,16.8,29.82,South,171,0.0,0.0,67,0.00,,OVC014,0.00,VWS V14.01,2013-02-10 05:00:00,
2013-02-09 23:01:00,26.1,16.6,29.82,South,171,0.0,0.0,67,0.00,,SCT014,0.00,VWS V14.01,2013-02-10 05:01:00,
2013-02-09 23:03:00,26.1,16.6,29.82,South,170,0.0,0.0,67,0.00,,SCT014,0.00,VWS V14.01,2013-02-10 05:03:00,
2013-02-09 23:07:00,25.7,15.9,29.82,SSE,166,0.0,0.0,66,0.00,,SCT014,0.00,VWS V14.01,2013-02-10 05:07:00,
2013-02-09 23:12:00,25.3,15.6,29.82,SSE,164,0.0,0.0,66,0.00,,SCT014,0.00,VWS V14.01,2013-02-10 05:12:00,
2013-02-09 23:18:00,25.0,15.2,29.82,SSE,164,0.0,0.0,66,0.00,,SCT014,0.00,VWS V14.01,2013-02-10 05:18:00,
2013-02-09 23:23:00,24.8,15.1,29.82,SSE,164,0.0,0.0,66,0.00,,SCT014,0.00,VWS V14.01,2013-02-10 05:23:00,
2013-02-09 23:29:00,24.4,14.7,29.82,SSE,165,0.0,0.0,66,0.00,,SCT014,0.00,VWS V14.01,2013-02-10 05:29:00,
2013-02-09 23:34:00,24.3,14.6,29.82,SE,127,0.0,0.0,66,0.00,,SCT014,0.00,VWS V14.01,2013-02-10 05:34:00,
2013-02-09 23:40:00,23.9,14.2,29.82,SE,127,0.0,0.0,66,0.00,,SCT014,0.00,VWS V14.01,2013-02-10 05:40:00,
2013-02-09 23:46:00,23.5,13.9,29.82,ESE,115,0.0,0.0,66,0.00,,SCT014,0.00,VWS V14.01,2013-02-10 05:46:00,
2013-02-09 23:51:00,23.5,13.9,29.82,ESE,115,0.0,0.0,66,0.00,,SCT014,0.00,VWS V14.01,2013-02-10 05:51:00,
2013-02-09 23:57:00,23.4,13.7,29.82,SSE,148,0.0,0.0,66,0.00,,SCT014,0.00,VWS V14.01,2013-02-10 05:57:00,